When you browse on this site, cookies collect data to enhance your experience and personalize the content and advertising you see.
Visit our Privacy Policy to learn more. By continuing to use the site, you agree to this use of cookies and data.
  • In Switzerland
  • List of Countries
  • For 7 days
  • Water Temperature
  • Satellite Maps
  • Weather Map
  • Weather Widgets
  • user-avatar
    Login

    Hourly Weather Laszkar Gah

    Today, 25 April, Thursday

    Time Temperature Precipitation Wind Pressure Humidity
    00:00 +24°C° 0 mm 3 mps 693 mmHg 24%
    01:00 +22°C° 0 mm 3 mps 693 mmHg 25%
    02:00 +22°C° 0 mm 3 mps 693 mmHg 25%
    03:00 +21°C° 0 mm 3 mps 693 mmHg 25%
    04:00 +21°C° 0 mm 3 mps 694 mmHg 25%
    05:00 +21°C° 0 mm 3 mps 694 mmHg 23%
    06:00 +22°C° 0 mm 3 mps 695 mmHg 22%
    07:00 +22°C° 0 mm 3 mps 695 mmHg 20%
    08:00 +25°C° 0 mm 4 mps 696 mmHg 18%
    09:00 +26°C° 0 mm 4 mps 696 mmHg 16%
    10:00 +27°C° 0 mm 4 mps 697 mmHg 13%
    11:00 +28°C° 0 mm 5 mps 697 mmHg 13%
    12:00 +29°C° 0 mm 5 mps 696 mmHg 13%
    13:00 +29°C° 0 mm 6 mps 696 mmHg 13%
    14:00 +29°C° 0 mm 6 mps 696 mmHg 13%
    15:00 +29°C° 0 mm 6 mps 696 mmHg 13%
    16:00 +29°C° 0 mm 6 mps 695 mmHg 13%
    17:00 +28°C° 0 mm 5 mps 695 mmHg 14%
    18:00 +27°C° 0 mm 5 mps 695 mmHg 15%
    19:00 +26°C° 0 mm 5 mps 695 mmHg 16%
    20:00 +25°C° 0 mm 4 mps 695 mmHg 17%
    21:00 +25°C° 0 mm 4 mps 695 mmHg 18%
    22:00 +23°C° 0 mm 4 mps 695 mmHg 18%
    23:00 +22°C° 0 mm 3 mps 695 mmHg 19%

    Tomorrow, 26 April, Friday

    Time Temperature Precipitation Wind Pressure Humidity
    00:00 +22°C° 0 mm 3 mps 695 mmHg 20%
    01:00 +21°C° 0 mm 2 mps 694 mmHg 21%
    02:00 +20°C° 0 mm 2 mps 694 mmHg 21%
    03:00 +20°C° 0 mm 3 mps 694 mmHg 22%
    04:00 +20°C° 0 mm 3 mps 694 mmHg 22%
    05:00 +20°C° 0 mm 3 mps 694 mmHg 22%
    06:00 +21°C° 0 mm 3 mps 695 mmHg 21%
    07:00 +21°C° 0 mm 3 mps 695 mmHg 20%
    08:00 +24°C° 0 mm 3 mps 696 mmHg 17%
    09:00 +25°C° 0 mm 3 mps 696 mmHg 15%
    10:00 +27°C° 0 mm 3 mps 696 mmHg 12%
    11:00 +28°C° 0 mm 3 mps 696 mmHg 11%
    12:00 +28°C° 0 mm 3 mps 696 mmHg 11%
    13:00 +29°C° 0 mm 3 mps 696 mmHg 10%
    14:00 +29°C° 0 mm 4 mps 695 mmHg 10%
    15:00 +30°C° 0 mm 4 mps 695 mmHg 10%
    16:00 +30°C° 0 mm 4 mps 694 mmHg 11%
    17:00 +29°C° 0 mm 4 mps 694 mmHg 12%
    18:00 +28°C° 0 mm 3 mps 694 mmHg 13%
    19:00 +27°C° 0 mm 3 mps 694 mmHg 14%
    20:00 +27°C° 0 mm 3 mps 695 mmHg 16%
    21:00 +26°C° 0 mm 3 mps 695 mmHg 17%
    22:00 +25°C° 0 mm 3 mps 695 mmHg 18%
    23:00 +25°C° 0 mm 2 mps 695 mmHg 19%

    Day after tomorrow, 27 April, Saturday

    Time Temperature Precipitation Wind Pressure Humidity
    00:00 +24°C° 0 mm 2 mps 695 mmHg 20%
    01:00 +23°C° 0 mm 2 mps 694 mmHg 21%
    02:00 +23°C° 0 mm 2 mps 694 mmHg 21%
    03:00 +21°C° 0 mm 2 mps 694 mmHg 22%
    04:00 +21°C° 0 mm 2 mps 694 mmHg 22%
    05:00 +23°C° 0 mm 2 mps 695 mmHg 21%
    06:00 +24°C° 0 mm 2 mps 695 mmHg 19%
    07:00 +24°C° 0 mm 2 mps 696 mmHg 18%
    08:00 +26°C° 0 mm 2 mps 696 mmHg 16%
    09:00 +27°C° 0 mm 2 mps 697 mmHg 14%
    10:00 +28°C° 0 mm 2 mps 697 mmHg 12%
    11:00 +29°C° 0 mm 3 mps 696 mmHg 11%
    12:00 +30°C° 0 mm 3 mps 696 mmHg 11%
    13:00 +32°C° 0 mm 4 mps 696 mmHg 10%
    14:00 +32°C° 0 mm 4 mps 695 mmHg 10%
    15:00 +32°C° 0 mm 4 mps 695 mmHg 10%
    16:00 +32°C° 0 mm 4 mps 694 mmHg 10%
    17:00 +30°C° 0 mm 4 mps 694 mmHg 11%
    18:00 +30°C° 0 mm 4 mps 694 mmHg 12%
    19:00 +29°C° 0 mm 4 mps 694 mmHg 13%
    20:00 +28°C° 0 mm 3 mps 695 mmHg 15%
    21:00 +27°C° 0 mm 3 mps 695 mmHg 16%
    22:00 +26°C° 0 mm 3 mps 695 mmHg 17%
    23:00 +26°C° 0 mm 3 mps 694 mmHg 19%

    28 April, Sunday

    Time Temperature Precipitation Wind Pressure Humidity
    00:00 +25°C° 0 mm 3 mps 694 mmHg 20%
    01:00 +24°C° 0 mm 3 mps 694 mmHg 22%
    02:00 +24°C° 0 mm 3 mps 694 mmHg 22%
    03:00 +24°C° 0 mm 3 mps 693 mmHg 22%
    04:00 +22°C° 0 mm 3 mps 693 mmHg 23%
    05:00 +24°C° 0 mm 3 mps 694 mmHg 22%
    06:00 +24°C° 0 mm 3 mps 694 mmHg 21%
    07:00 +25°C° 0 mm 3 mps 695 mmHg 20%
    08:00 +27°C° 0 mm 3 mps 695 mmHg 18%
    09:00 +28°C° 0 mm 3 mps 695 mmHg 15%
    10:00 +30°C° 0 mm 3 mps 696 mmHg 13%
    11:00 +32°C° 0 mm 4 mps 695 mmHg 12%
    12:00 +32°C° 0 mm 4 mps 695 mmHg 10%
    13:00 +33°C° 0 mm 5 mps 694 mmHg 9%
    14:00 +33°C° 0 mm 5 mps 694 mmHg 9%
    15:00 +34°C° 0 mm 5 mps 693 mmHg 9%
    16:00 +34°C° 0 mm 6 mps 693 mmHg 8%
    17:00 +33°C° 0 mm 5 mps 693 mmHg 10%
    18:00 +32°C° 0 mm 4 mps 693 mmHg 11%
    19:00 +30°C° 0 mm 3 mps 693 mmHg 12%
    20:00 +29°C° 0 mm 3 mps 693 mmHg 13%
    21:00 +28°C° 0 mm 3 mps 693 mmHg 14%
    22:00 +27°C° 0 mm 3 mps 693 mmHg 15%
    23:00 +26°C° 0 mm 3 mps 692 mmHg 16%

    29 April, Monday

    Time Temperature Precipitation Wind Pressure Humidity
    00:00 +26°C° 0 mm 2 mps 692 mmHg 17%
    01:00 +25°C° 0 mm 2 mps 691 mmHg 18%
    02:00 +24°C° 0 mm 1 mps 691 mmHg 19%
    03:00 +23°C° 0 mm 1 mps 691 mmHg 20%
    04:00 +21°C° 0 mm 0 mps 690 mmHg 21%
    05:00 +24°C° 0 mm 1 mps 691 mmHg 19%
    06:00 +25°C° 0 mm 1 mps 691 mmHg 17%
    07:00 +27°C° 0 mm 2 mps 692 mmHg 15%
    08:00 +28°C° 0 mm 2 mps 692 mmHg 13%
    09:00 +29°C° 0 mm 2 mps 692 mmHg 12%
    10:00 +31°C° 0 mm 2 mps 692 mmHg 10%
    11:00 +31°C° 0 mm 1 mps 692 mmHg 10%
    12:00 +32°C° 0 mm 1 mps 691 mmHg 9%
    13:00 +31°C° 0 mm 0 mps 690 mmHg 9%
    14:00 +34°C° 0 mm 1 mps 690 mmHg 9%
    15:00 +35°C° 0 mm 2 mps 689 mmHg 9%
    16:00 +35°C° 0 mm 3 mps 689 mmHg 9%
    17:00 +34°C° 0 mm 4 mps 689 mmHg 10%
    18:00 +33°C° 0 mm 5 mps 689 mmHg 11%
    19:00 +32°C° 0 mm 6 mps 689 mmHg 12%
    20:00 +30°C° 0 mm 7 mps 689 mmHg 15%
    21:00 +29°C° 0 mm 7 mps 690 mmHg 19%
    22:00 +28°C° 0 mm 7 mps 690 mmHg 22%
    23:00 +28°C° 0.1 mm 6 mps 690 mmHg 24%

    30 April, Tuesday

    Time Temperature Precipitation Wind Pressure Humidity
    00:00 +27°C° 0.1 mm 5 mps 690 mmHg 26%
    01:00 +26°C° 0.1 mm 4 mps 689 mmHg 29%
    02:00 +25°C° 0 mm 3 mps 689 mmHg 30%
    03:00 +25°C° 0 mm 3 mps 690 mmHg 32%
    04:00 +24°C° 0 mm 2 mps 690 mmHg 34%
    05:00 +24°C° 0 mm 2 mps 690 mmHg 32%
    06:00 +25°C° 0 mm 2 mps 691 mmHg 31%
    07:00 +25°C° 0 mm 2 mps 691 mmHg 30%
    08:00 +26°C° 0 mm 2 mps 692 mmHg 27%
    09:00 +28°C° 0 mm 2 mps 692 mmHg 24%
    10:00 +29°C° 0 mm 3 mps 692 mmHg 21%
    11:00 +30°C° 0 mm 3 mps 692 mmHg 19%
    12:00 +32°C° 0 mm 4 mps 691 mmHg 18%
    13:00 +33°C° 0 mm 4 mps 691 mmHg 16%
    14:00 +33°C° 0 mm 5 mps 691 mmHg 15%
    15:00 +33°C° 0 mm 5 mps 690 mmHg 14%
    16:00 +33°C° 0 mm 6 mps 690 mmHg 13%
    17:00 +33°C° 0 mm 5 mps 690 mmHg 14%
    18:00 +32°C° 0 mm 5 mps 690 mmHg 15%
    19:00 +30°C° 0 mm 5 mps 690 mmHg 16%
    20:00 +29°C° 0 mm 5 mps 690 mmHg 17%
    21:00 +28°C° 0 mm 5 mps 690 mmHg 17%
    22:00 +27°C° 0 mm 5 mps 690 mmHg 18%
    23:00 +27°C° 0 mm 4 mps 690 mmHg 19%
    Show more